ガン彗星

65P/Gunn (2003)

English version
Home page
Updated on December 31, 2006

---------------------------------------------------------------------

・ プロフィール

・ 写真集

・ 軌道要素

Epoch 2003 May 1.0 TT = JDT 2452760.5  
T 2003 May 11.86303 TT                                  Muraoka 
q   2.4459447            (2000.0)            P               Q
n   0.14490116     Peri.  196.37461     -0.09507298     +0.98125908
a   3.5899478      Node    68.41694     -0.89192300     -0.00919653
e   0.3186684      Incl.   10.38395     -0.44207974     -0.19247348
P   6.80
From 436 observations 1976-1998, mean residual 0".87.  Nongravitational
   parameters A1 = +1.65 +/- 0.04, A2 = +0.2697 +/- 0.0019.

・ 星図

・ 光度変化

        m1 = 6.8 + 5 logΔ + 12.0 log r

---------------------------------------------------------------------

軌道要素は村岡健治氏の計算によるものです。
星図は StellaNavigator Ver.2.0 for Windows (アストロアーツ 編著 / アスキー出版局刊) で作成したものです。
光度グラフはComet for Windowsで作成したものです。

---------------------------------------------------------------------

Copyright(C) Seiichi Yoshida (comet@aerith.net). All rights reserved.